Forecast Directory
U.S. Alerts
El Dorado Weather Logo
U.S. Radar Loop Conditions Map

U.S. Color Satellite North America Color Infrared Animated Satellite Loop

Interactive Wx Map Live U.S. Google Map Radar Thumbnail Image

US Precipitation 1 day, 24 hour precipitation map

US Temperatures US Conditions Map

US Climate Data US Conditions Map


NOAA NWS Hourly Roundups by Site
Regional Weather Roundup for Sacramento, CA
Select Site:  

000
ASUS46 KSTO 191115
RWRCA

NORTHERN AND CENTRAL CA REGIONAL WEATHER ROUNDUP
NATIONAL WEATHER SERVICE SACRAMENTO CA
400 AM PDT SAT SEP 19 2020

NOTE: FAIR INDICATES FEW OR NO CLOUDS BELOW 12,000 FEET WITH NO
SIGNIFICANT WEATHER AND/OR OBSTRUCTIONS TO VISIBILITY.

CAZ001-003-191200-
NORTHWEST AREA

CITY           SKY/WX    TMP DP  RH WIND       PRES   REMARKS
CRESCENT CITY  CLOUDY    61  59  93 SE7       30.05S
UKIAH          CLEAR     57  52  83 CALM      30.02R
$$

CAZ006-505>513-191200-
BAY AREA

CITY           SKY/WX    TMP DP  RH WIND       PRES   REMARKS
SANTA ROSA     FOG       54  54 100 SE3       29.99S VSB 1/4
SAN RAFAEL     N/A       MM  MM  MM MISG
NAPA           PTCLDY    59  56  89 NE3       29.98S
CONCORD        CLEAR     62  56  80 SW9       29.98S
OAKLAND CITY   N/A       62  MM  MM MISG
OAKLAND        MOCLDY    65  58  78 W9        30.01S
SAN FRAN CITY  N/A       61  MM  96 MISG
SAN FRAN ARPT  CLOUDY    63  58  83 W13       30.01R
LIVERMORE      CLEAR     60  56  86 CALM      29.99F
HAYWARD        CLOUDY    65  57  75 NW6       30.00S
REDWOOD CITY   N/A       57  MM  91 MISG
MOFFETT ARPT   MOCLDY    61  57  88 CALM      30.01S
SAN JOSE ARPT  PTCLDY    62  57  83 NW6       30.01R
$$
CAZ034-037-514>518-191200-
CENTRAL COAST

CITY           SKY/WX    TMP DP  RH WIND       PRES   REMARKS
WATSONVILLE    CLEAR     56  54  93 N3        30.01S
SALINAS        CLEAR     59  55  87 N6        30.00S
MONTEREY       MOCLDY   N/A N/A N/A W3        30.01S
SANTA MARIA    FOG       57  56  96 CALM      29.94F VSB 1/2
HALF MOON BAY  CLOUDY    61  59  94 N7        30.02S
$$
CAZ015-016-191200-
NORTHERN SACRAMENTO VALLEY

CITY           SKY/WX    TMP DP  RH WIND       PRES   REMARKS
REDDING        MOCLDY    62  51  67 CALM      29.97R
RED BLUFF      CLEAR     69  54  58 SW3       29.98R
OROVILLE       CLEAR     62  55  77 CALM      29.98R
$$
CAZ016>018-191200-
SOUTHERN SACRAMENTO VALLEY

CITY           SKY/WX    TMP DP  RH WIND       PRES   REMARKS
AUBURN         CLEAR     59  48  67 E7        29.99S
BEALE AFB      CLEAR     60  54  79 SE6       29.95R
LINCOLN        FAIR      59  55  88 CALM      29.96R
MARYSVILLE     CLEAR     60  55  83 S3        29.97R
SAC INTL ARPT  CLEAR     62  58  86 SE7       29.95S
MATHER AIRPORT NOT AVBL
DOWNTOWN SAC   N/A       60  MM  MM MISG
SAC EXEC ARPT  CLEAR     61  57  87 SE5       29.96S
VACAVILLE      CLEAR     60  55  83 SW3       29.96S
TRAVIS AFB     CLEAR     59  57  93 SW15      29.95S
$$
CAZ019>021-191200-
SAN JOAQUIN VALLEY

CITY           SKY/WX    TMP DP  RH WIND       PRES   REMARKS
STOCKTON       CLEAR     62  56  80 W6        29.96S
MODESTO        CLEAR     63  58  83 NW9       29.95F
MERCED         CLEAR     63  57  81 N10       29.95S
LEMOORE        CLEAR     65  55  70 N12       29.95R
FRESNO         PTCLDY    66  55  67 NW10      29.94S
HANFORD        CLEAR     64  57  78 NW10      29.94S
PORTERVILLE    CLEAR     60  55  83 S3        29.95S
$$
CAZ011-012-071-191200-
NORTHERN MOUNTAINS

CITY           SKY/WX    TMP DP  RH WIND       PRES   REMARKS
YREKA          CLEAR     55  44  66 NE5       30.08R
MOUNT SHASTA   CLEAR     45  41  86 NE3       30.08R
ALTURAS        CLOUDY    47  39  74 CALM      30.10R
$$
CAZ011-012-071-191200-
SIERRA NEVADA MTNS

CITY           SKY/WX    TMP DP  RH WIND       PRES   REMARKS
BLUE CANYON    CLEAR     50  42  74 CALM      30.13F
TRUCKEE        CLEAR     30  30 100 CALM      30.16S
TAHOE VLY ARPT CLEAR     51  40  65 VRB3      30.13F
MAMMOTH LAKES  FAIR      43  32  65 N5        30.18S HAZE
$$



 

View Past Reports for Sacramento, CA.

Products Courtesy of NOAA-NWS
NWS Information Parsing Script by Ken True at Saratoga Weather - Script by SE Lincoln Weather.



Contact Us | Mobile
Never base any life decisions on weather information from this site or anywhere over the Internet.
Site is dedicated to our Lord & Savior Jesus Christ | Random Quotes of Jesus

Copyright © 2020 El Dorado Weather, Inc. | Site Designed By:  El Dorado Weather